{"data":{"norad_id":63325,"intl_designator":"2025-057U","name":"STARLINK-33612","alt_names":[],"object_type":"PAYLOAD","status":"ACTIVE","operator":null,"country":"US","launch_date":"2025-03-18","launch_site_code":"AFETR","launch_vehicle":null,"mission":null,"orbit_class":"UNKNOWN","rcs_meters":null,"size_class":null,"mass_kg":null,"dimensions":null,"purposes":["comms"],"wikipedia_slug":null,"has_3d_model":false,"image_url":null,"decayed_at":null,"tle_current":{"epoch":"2026-09-19T14:56:48.762240Z","epoch_age_seconds":234690,"freshness":"STALE","line1":"1 63325U 25057U   26262.62278660  .00013520  00000+0  49962-3 0  9996","line2":"2 63325  43.0033  15.9041 0001457 272.1331  87.9353 15.27599404 85431","mean_motion":15.27599404,"eccentricity":0.0001457,"inclination_deg":43.0033,"raan_deg":15.9041,"arg_perigee_deg":272.1331,"mean_anomaly_deg":87.9353,"bstar":0.00049962,"rev_number":8543,"period_min":94.265551310728,"perigee_km":481.99132774939,"apogee_km":483.99066044687,"semimajor_km":6861.1279940981,"source":"CELESTRAK","updated_at":"2026-09-21T09:00:34.970750Z"}}}